Precipitable_Water
0.35 0.36 0.36 0.36 0.36 0.37 0.38 0.38 0.39 0.39 0.39 0.40 0.40 0.40 0.41 0.41 0.41 0.41 0.41 0.42 0.41 0.40 0.40 0.40 0.40 0.41 0.41 0.41 0.40 0.39 0.37 0.36 0.36 0.35 0.34 0.33 0.33 0.33 0.33 0.33 0.33 0.33 0.32 0.32 0.32 0.32 0.32 0.32 0.32 0.31 0.32 0.32 0.32 0.31 0.30 0.30 0.29 0.27 0.25 0.25 0.25 0.25
0.33 0.35 0.36 0.36 0.36 0.36 0.37 0.38 0.40 0.40 0.40 0.40 0.41 0.41 0.42 0.42 0.42 0.42 0.41 0.42 0.42 0.41 0.41 0.41 0.42 0.41 0.41 0.42 0.41 0.40 0.38 0.37 0.37 0.36 0.35 0.34 0.34 0.34 0.34 0.33 0.33 0.33 0.32 0.33 0.33 0.33 0.32 0.32 0.31 0.31 0.31 0.31 0.31 0.30 0.29 0.28 0.27 0.25 0.24 0.24 0.25 0.25
0.34 0.35 0.36 0.37 0.37 0.38 0.39 0.39 0.39 0.40 0.42 0.41 0.41 0.40 0.40 0.42 0.43 0.43 0.42 0.42 0.42 0.41 0.41 0.42 0.42 0.42 0.42 0.42 0.42 0.40 0.39 0.38 0.37 0.37 0.36 0.35 0.35 0.34 0.34 0.33 0.33 0.33 0.33 0.33 0.33 0.32 0.32 0.31 0.30 0.31 0.31 0.31 0.30 0.30 0.28 0.27 0.26 0.25 0.24 0.24 0.24 0.24
0.35 0.36 0.37 0.38 0.39 0.39 0.39 0.39 0.40 0.41 0.41 0.41 0.41 0.41 0.41 0.42 0.43 0.43 0.42 0.43 0.43 0.42 0.42 0.42 0.43 0.42 0.42 0.42 0.43 0.41 0.40 0.39 0.38 0.37 0.37 0.35 0.35 0.35 0.34 0.34 0.34 0.33 0.33 0.33 0.33 0.33 0.32 0.31 0.31 0.31 0.31 0.30 0.29 0.28 0.27 0.26 0.25 0.25 0.24 0.24 0.23 0.23
0.35 0.36 0.37 0.38 0.37 0.38 0.39 0.39 0.40 0.41 0.40 0.40 0.41 0.41 0.42 0.43 0.43 0.44 0.44 0.43 0.43 0.43 0.43 0.43 0.43 0.43 0.42 0.43 0.43 0.42 0.41 0.40 0.38 0.38 0.37 0.36 0.36 0.36 0.35 0.34 0.34 0.33 0.33 0.33 0.33 0.33 0.32 0.31 0.31 0.31 0.30 0.30 0.29 0.27 0.26 0.26 0.25 0.24 0.23 0.23 0.22 0.22
0.38 0.38 0.37 0.38 0.39 0.40 0.39 0.39 0.39 0.39 0.39 0.40 0.40 0.40 0.42 0.43 0.43 0.43 0.45 0.44 0.44 0.44 0.43 0.43 0.43 0.43 0.43 0.42 0.43 0.42 0.42 0.40 0.39 0.39 0.38 0.37 0.37 0.36 0.36 0.36 0.35 0.34 0.33 0.33 0.33 0.33 0.32 0.31 0.31 0.30 0.30 0.29 0.28 0.27 0.26 0.25 0.25 0.24 0.24 0.23 0.22 0.21
0.38 0.38 0.39 0.39 0.39 0.40 0.40 0.39 0.40 0.40 0.40 0.40 0.40 0.41 0.41 0.42 0.44 0.44 0.44 0.45 0.44 0.44 0.43 0.42 0.43 0.43 0.43 0.43 0.43 0.43 0.42 0.41 0.40 0.39 0.39 0.38 0.38 0.37 0.36 0.36 0.35 0.34 0.33 0.33 0.32 0.32 0.31 0.31 0.31 0.30 0.30 0.29 0.28 0.27 0.26 0.25 0.24 0.24 0.23 0.23 0.22 0.21
0.39 0.39 0.39 0.39 0.40 0.40 0.41 0.41 0.40 0.40 0.40 0.41 0.41 0.41 0.41 0.42 0.44 0.45 0.45 0.45 0.44 0.43 0.43 0.42 0.43 0.43 0.43 0.43 0.43 0.43 0.43 0.42 0.40 0.40 0.39 0.38 0.37 0.37 0.36 0.35 0.35 0.34 0.33 0.33 0.33 0.32 0.31 0.31 0.30 0.30 0.29 0.29 0.27 0.26 0.25 0.24 0.23 0.23 0.22 0.22 0.21 0.21
0.39 0.39 0.40 0.40 0.41 0.41 0.42 0.41 0.40 0.40 0.40 0.40 0.41 0.42 0.42 0.42 0.43 0.44 0.44 0.44 0.43 0.43 0.43 0.43 0.43 0.43 0.43 0.43 0.44 0.43 0.43 0.42 0.41 0.40 0.39 0.38 0.37 0.36 0.35 0.35 0.34 0.34 0.33 0.33 0.33 0.31 0.31 0.31 0.30 0.30 0.29 0.28 0.27 0.25 0.24 0.23 0.23 0.22 0.22 0.21 0.21 0.21
0.39 0.40 0.41 0.41 0.41 0.42 0.42 0.42 0.42 0.41 0.41 0.41 0.42 0.43 0.43 0.43 0.43 0.43 0.43 0.43 0.42 0.43 0.43 0.44 0.44 0.44 0.44 0.44 0.44 0.43 0.42 0.41 0.41 0.40 0.39 0.38 0.37 0.36 0.35 0.34 0.34 0.33 0.33 0.33 0.32 0.31 0.30 0.30 0.30 0.29 0.28 0.27 0.26 0.25 0.23 0.23 0.22 0.21 0.21 0.21 0.21 0.21
0.40 0.41 0.41 0.42 0.43 0.42 0.43 0.43 0.43 0.43 0.43 0.43 0.43 0.43 0.43 0.43 0.43 0.42 0.42 0.43 0.43 0.44 0.44 0.44 0.44 0.45 0.45 0.45 0.44 0.43 0.42 0.42 0.41 0.41 0.39 0.38 0.36 0.35 0.35 0.34 0.33 0.33 0.32 0.33 0.32 0.30 0.30 0.29 0.28 0.28 0.27 0.26 0.25 0.24 0.23 0.22 0.22 0.21 0.21 0.21 0.20 0.20
0.42 0.42 0.43 0.43 0.43 0.43 0.44 0.44 0.44 0.44 0.44 0.44 0.44 0.44 0.44 0.44 0.43 0.43 0.44 0.44 0.45 0.45 0.45 0.44 0.44 0.44 0.44 0.43 0.43 0.42 0.42 0.42 0.41 0.40 0.38 0.37 0.36 0.35 0.35 0.34 0.33 0.33 0.32 0.32 0.31 0.30 0.29 0.29 0.28 0.27 0.27 0.26 0.25 0.24 0.23 0.22 0.22 0.21 0.21 0.21 0.20 0.20
0.43 0.44 0.43 0.44 0.44 0.45 0.45 0.46 0.46 0.46 0.45 0.44 0.44 0.44 0.45 0.45 0.44 0.45 0.45 0.45 0.45 0.44 0.44 0.43 0.43 0.43 0.43 0.42 0.42 0.41 0.41 0.40 0.39 0.38 0.37 0.36 0.35 0.34 0.34 0.33 0.32 0.32 0.31 0.31 0.31 0.29 0.28 0.28 0.27 0.27 0.27 0.26 0.26 0.25 0.24 0.23 0.22 0.22 0.22 0.21 0.20 0.19
0.44 0.44 0.45 0.45 0.46 0.47 0.47 0.47 0.47 0.46 0.45 0.44 0.44 0.45 0.45 0.45 0.45 0.44 0.44 0.44 0.44 0.43 0.43 0.43 0.42 0.42 0.42 0.43 0.42 0.42 0.41 0.40 0.39 0.38 0.37 0.36 0.35 0.34 0.34 0.33 0.32 0.32 0.32 0.32 0.31 0.28 0.27 0.27 0.27 0.26 0.26 0.25 0.25 0.25 0.24 0.23 0.23 0.22 0.22 0.21 0.20 0.19
0.45 0.46 0.47 0.47 0.48 0.48 0.48 0.48 0.46 0.45 0.45 0.45 0.45 0.46 0.45 0.45 0.45 0.45 0.45 0.45 0.44 0.43 0.43 0.43 0.42 0.43 0.43 0.43 0.42 0.42 0.41 0.40 0.39 0.38 0.37 0.36 0.35 0.35 0.34 0.33 0.32 0.32 0.33 0.32 0.30 0.28 0.27 0.27 0.26 0.26 0.25 0.25 0.24 0.24 0.23 0.23 0.23 0.22 0.21 0.20 0.19 0.18
0.47 0.48 0.49 0.49 0.50 0.49 0.49 0.48 0.47 0.47 0.46 0.46 0.47 0.46 0.46 0.47 0.47 0.47 0.47 0.46 0.45 0.45 0.45 0.45 0.44 0.44 0.44 0.43 0.43 0.42 0.40 0.39 0.38 0.37 0.37 0.36 0.35 0.34 0.34 0.33 0.33 0.33 0.33 0.32 0.30 0.28 0.27 0.25 0.25 0.26 0.25 0.24 0.23 0.23 0.23 0.23 0.22 0.21 0.20 0.19 0.18 0.17
0.46 0.47 0.48 0.49 0.49 0.49 0.48 0.47 0.47 0.47 0.47 0.48 0.47 0.48 0.48 0.48 0.48 0.47 0.47 0.46 0.46 0.45 0.45 0.45 0.45 0.44 0.44 0.43 0.43 0.42 0.40 0.39 0.38 0.37 0.36 0.35 0.34 0.34 0.33 0.33 0.33 0.33 0.34 0.33 0.30 0.27 0.25 0.26 0.26 0.25 0.24 0.23 0.22 0.22 0.23 0.22 0.21 0.20 0.19 0.18 0.18 0.17
0.44 0.45 0.47 0.49 0.49 0.49 0.49 0.48 0.49 0.49 0.49 0.49 0.49 0.49 0.49 0.47 0.46 0.45 0.44 0.44 0.44 0.44 0.45 0.45 0.45 0.45 0.44 0.43 0.42 0.40 0.39 0.38 0.37 0.36 0.35 0.34 0.34 0.34 0.34 0.34 0.34 0.35 0.34 0.32 0.29 0.27 0.26 0.26 0.25 0.24 0.23 0.22 0.22 0.22 0.21 0.20 0.19 0.19 0.18 0.18 0.18 0.17
0.45 0.46 0.47 0.48 0.48 0.48 0.49 0.50 0.50 0.50 0.50 0.49 0.49 0.48 0.47 0.46 0.45 0.44 0.43 0.43 0.43 0.43 0.43 0.43 0.43 0.42 0.41 0.41 0.39 0.38 0.38 0.37 0.36 0.36 0.36 0.35 0.34 0.33 0.33 0.33 0.34 0.35 0.33 0.31 0.29 0.28 0.26 0.24 0.23 0.23 0.22 0.22 0.21 0.21 0.20 0.20 0.19 0.19 0.18 0.17 0.17 0.17
0.46 0.46 0.46 0.47 0.48 0.48 0.49 0.50 0.51 0.50 0.48 0.48 0.48 0.47 0.47 0.45 0.44 0.44 0.44 0.43 0.43 0.42 0.42 0.42 0.41 0.40 0.39 0.39 0.38 0.37 0.36 0.36 0.35 0.34 0.34 0.33 0.33 0.32 0.33 0.34 0.35 0.34 0.32 0.30 0.29 0.27 0.25 0.23 0.22 0.22 0.22 0.21 0.21 0.21 0.20 0.19 0.18 0.18 0.18 0.17 0.17 0.17
0.47 0.47 0.46 0.47 0.47 0.48 0.49 0.49 0.50 0.49 0.48 0.47 0.47 0.46 0.44 0.43 0.44 0.45 0.44 0.44 0.44 0.43 0.43 0.42 0.42 0.40 0.39 0.37 0.36 0.35 0.35 0.35 0.34 0.35 0.35 0.34 0.33 0.33 0.34 0.34 0.34 0.33 0.31 0.30 0.28 0.27 0.25 0.23 0.22 0.21 0.21 0.20 0.20 0.20 0.20 0.19 0.19 0.18 0.17 0.17 0.17 0.17
0.44 0.45 0.45 0.44 0.46 0.47 0.47 0.47 0.47 0.47 0.47 0.46 0.46 0.44 0.43 0.43 0.43 0.44 0.44 0.44 0.44 0.42 0.42 0.42 0.40 0.39 0.38 0.36 0.34 0.33 0.32 0.32 0.32 0.33 0.33 0.33 0.33 0.33 0.34 0.34 0.33 0.31 0.30 0.29 0.28 0.25 0.24 0.22 0.21 0.20 0.20 0.20 0.20 0.20 0.20 0.19 0.18 0.17 0.17 0.17 0.17 0.16
0.45 0.46 0.46 0.46 0.46 0.46 0.46 0.46 0.46 0.45 0.46 0.46 0.44 0.43 0.44 0.44 0.43 0.43 0.46 0.44 0.44 0.41 0.40 0.38 0.37 0.36 0.34 0.33 0.32 0.31 0.29 0.29 0.29 0.30 0.31 0.32 0.33 0.34 0.34 0.33 0.31 0.30 0.29 0.28 0.26 0.24 0.22 0.21 0.20 0.19 0.19 0.19 0.19 0.19 0.19 0.19 0.18 0.18 0.17 0.17 0.16 0.15
0.47 0.49 0.49 0.48 0.46 0.46 0.46 0.46 0.45 0.45 0.45 0.44 0.43 0.43 0.44 0.44 0.43 0.43 0.45 0.43 0.43 0.41 0.39 0.37 0.36 0.35 0.34 0.32 0.32 0.31 0.29 0.28 0.28 0.28 0.29 0.31 0.33 0.34 0.33 0.32 0.30 0.28 0.27 0.25 0.23 0.21 0.21 0.21 0.20 0.19 0.18 0.18 0.18 0.18 0.19 0.18 0.18 0.18 0.18 0.16 0.15 0.15
0.46 0.48 0.48 0.48 0.48 0.48 0.47 0.46 0.44 0.44 0.44 0.43 0.43 0.45 0.44 0.44 0.43 0.43 0.44 0.43 0.42 0.40 0.39 0.38 0.37 0.35 0.33 0.32 0.31 0.31 0.30 0.29 0.28 0.29 0.30 0.32 0.32 0.33 0.33 0.32 0.29 0.26 0.24 0.22 0.21 0.20 0.20 0.19 0.19 0.18 0.18 0.18 0.18 0.18 0.18 0.19 0.18 0.18 0.17 0.15 0.14 0.14
0.47 0.48 0.48 0.48 0.48 0.48 0.48 0.47 0.45 0.44 0.43 0.43 0.46 0.45 0.43 0.42 0.43 0.43 0.42 0.41 0.40 0.38 0.37 0.37 0.35 0.33 0.32 0.31 0.30 0.30 0.29 0.28 0.29 0.30 0.31 0.32 0.32 0.33 0.32 0.30 0.26 0.24 0.22 0.21 0.20 0.19 0.19 0.18 0.18 0.18 0.18 0.18 0.18 0.18 0.18 0.18 0.17 0.17 0.16 0.16 0.14 0.14
0.46 0.48 0.48 0.49 0.49 0.49 0.48 0.48 0.47 0.45 0.44 0.46 0.46 0.44 0.43 0.43 0.43 0.43 0.43 0.42 0.40 0.38 0.37 0.35 0.33 0.32 0.31 0.30 0.28 0.28 0.28 0.28 0.29 0.30 0.32 0.33 0.33 0.33 0.31 0.27 0.25 0.23 0.21 0.20 0.19 0.18 0.18 0.18 0.18 0.17 0.17 0.17 0.17 0.17 0.17 0.17 0.17 0.16 0.16 0.15 0.14 0.14
0.45 0.46 0.46 0.47 0.48 0.48 0.49 0.49 0.48 0.45 0.46 0.46 0.44 0.43 0.43 0.43 0.43 0.42 0.41 0.40 0.39 0.38 0.36 0.34 0.32 0.31 0.30 0.29 0.28 0.27 0.28 0.29 0.29 0.31 0.33 0.33 0.33 0.32 0.29 0.25 0.23 0.22 0.20 0.19 0.18 0.18 0.18 0.18 0.17 0.17 0.17 0.17 0.17 0.17 0.16 0.16 0.16 0.15 0.15 0.14 0.14 0.14
0.41 0.41 0.42 0.42 0.43 0.44 0.45 0.46 0.47 0.47 0.47 0.46 0.46 0.45 0.45 0.44 0.42 0.41 0.40 0.39 0.38 0.37 0.35 0.33 0.31 0.31 0.30 0.29 0.28 0.28 0.29 0.30 0.31 0.32 0.32 0.32 0.31 0.30 0.26 0.24 0.23 0.20 0.19 0.18 0.18 0.18 0.18 0.17 0.17 0.16 0.16 0.17 0.17 0.17 0.16 0.15 0.15 0.14 0.14 0.13 0.13 0.14
0.41 0.41 0.41 0.42 0.43 0.43 0.42 0.42 0.44 0.45 0.45 0.44 0.44 0.44 0.43 0.42 0.41 0.40 0.39 0.38 0.37 0.35 0.34 0.32 0.30 0.30 0.29 0.29 0.28 0.28 0.29 0.30 0.32 0.32 0.31 0.30 0.29 0.27 0.24 0.23 0.22 0.20 0.18 0.18 0.18 0.18 0.17 0.16 0.16 0.16 0.16 0.16 0.16 0.16 0.16 0.15 0.14 0.14 0.13 0.13 0.13 0.13
0.43 0.43 0.43 0.43 0.45 0.45 0.44 0.43 0.41 0.41 0.41 0.42 0.42 0.42 0.40 0.38 0.37 0.37 0.37 0.36 0.34 0.33 0.32 0.31 0.30 0.29 0.28 0.28 0.28 0.28 0.29 0.30 0.31 0.30 0.29 0.29 0.28 0.25 0.23 0.22 0.21 0.20 0.19 0.19 0.18 0.17 0.16 0.16 0.15 0.16 0.18 0.17 0.16 0.16 0.15 0.14 0.13 0.13 0.13 0.13 0.13 0.11
0.41 0.40 0.41 0.42 0.44 0.45 0.44 0.43 0.43 0.42 0.41 0.40 0.38 0.36 0.34 0.33 0.33 0.33 0.34 0.33 0.32 0.31 0.31 0.30 0.30 0.29 0.28 0.28 0.28 0.28 0.29 0.31 0.31 0.30 0.29 0.28 0.27 0.25 0.24 0.23 0.21 0.20 0.20 0.18 0.19 0.18 0.16 0.16 0.16 0.17 0.17 0.16 0.16 0.15 0.15 0.14 0.13 0.13 0.13 0.13 0.12 0.11
0.36 0.36 0.36 0.37 0.40 0.40 0.39 0.40 0.41 0.40 0.40 0.39 0.39 0.38 0.36 0.34 0.33 0.32 0.32 0.31 0.29 0.28 0.28 0.28 0.28 0.28 0.28 0.28 0.27 0.27 0.28 0.29 0.30 0.30 0.29 0.28 0.27 0.25 0.24 0.23 0.22 0.21 0.20 0.19 0.18 0.19 0.18 0.18 0.18 0.17 0.16 0.15 0.15 0.14 0.14 0.13 0.13 0.13 0.12 0.12 0.10 0.09
0.33 0.34 0.34 0.34 0.34 0.34 0.35 0.35 0.35 0.36 0.37 0.38 0.38 0.37 0.36 0.35 0.33 0.31 0.30 0.31 0.29 0.28 0.27 0.26 0.26 0.27 0.27 0.27 0.27 0.27 0.29 0.30 0.29 0.28 0.29 0.29 0.27 0.25 0.24 0.24 0.23 0.22 0.21 0.20 0.18 0.17 0.17 0.17 0.17 0.16 0.15 0.15 0.14 0.13 0.13 0.12 0.12 0.12 0.12 0.11 0.10 0.08
0.34 0.33 0.33 0.32 0.32 0.32 0.32 0.31 0.31 0.32 0.31 0.31 0.31 0.31 0.30 0.28 0.27 0.27 0.26 0.27 0.28 0.27 0.27 0.26 0.26 0.26 0.27 0.27 0.27 0.27 0.29 0.30 0.29 0.28 0.27 0.28 0.26 0.25 0.24 0.24 0.23 0.22 0.21 0.20 0.19 0.18 0.17 0.16 0.16 0.15 0.14 0.14 0.13 0.12 0.12 0.11 0.11 0.11 0.11 0.10 0.08 0.08
0.31 0.31 0.31 0.31 0.30 0.30 0.30 0.29 0.29 0.30 0.29 0.28 0.27 0.26 0.25 0.25 0.23 0.23 0.25 0.26 0.27 0.27 0.26 0.26 0.27 0.27 0.27 0.27 0.27 0.28 0.30 0.30 0.29 0.28 0.27 0.25 0.23 0.23 0.24 0.23 0.22 0.21 0.20 0.19 0.19 0.18 0.17 0.16 0.15 0.14 0.14 0.13 0.12 0.11 0.11 0.10 0.09 0.10 0.10 0.09 0.07 0.07
0.25 0.27 0.28 0.29 0.29 0.29 0.28 0.27 0.27 0.29 0.29 0.29 0.28 0.28 0.27 0.26 0.25 0.23 0.24 0.25 0.25 0.25 0.25 0.26 0.27 0.27 0.27 0.27 0.28 0.29 0.30 0.29 0.28 0.27 0.26 0.24 0.22 0.22 0.20 0.20 0.20 0.20 0.19 0.18 0.18 0.17 0.16 0.16 0.15 0.14 0.13 0.12 0.11 0.10 0.10 0.09 0.08 0.07 0.07 0.07 0.07 0.07
0.24 0.24 0.26 0.28 0.28 0.28 0.27 0.26 0.27 0.29 0.30 0.31 0.31 0.31 0.30 0.29 0.28 0.26 0.24 0.23 0.24 0.25 0.25 0.26 0.26 0.27 0.27 0.27 0.28 0.29 0.29 0.29 0.28 0.26 0.24 0.23 0.22 0.21 0.19 0.18 0.17 0.17 0.17 0.17 0.17 0.16 0.16 0.15 0.14 0.13 0.12 0.11 0.10 0.09 0.08 0.07 0.07 0.06 0.06 0.06 0.07 0.06
Wind_Speed
30 30 29 30 30 31 32 33 33 34 35 35 36 37 37 37 36 36 37 37 37 37 37 36 36 35 35 35 35 35 35 35 35 36 36 37 37 37 37 38 38 39 39 39 39 39 40 40 40 41 41 41 41 41 40 40 40 40 41 42 43 44
31 31 31 31 32 33 33 34 35 36 36 37 37 38 38 39 38 38 38 38 39 38 38 37 37 36 36 36 36 36 36 37 37 37 37 37 38 38 38 39 39 39 39 39 39 39 40 40 40 41 41 41 41 41 40 40 40 41 42 43 44 45
33 32 32 33 33 33 34 35 36 36 37 38 39 39 40 40 40 40 39 39 40 40 39 39 38 38 37 37 37 37 38 38 38 38 38 38 39 39 39 39 39 39 39 39 40 40 40 40 40 41 41 41 41 41 40 40 41 42 43 43 45 45
34 33 33 33 33 34 35 35 36 37 38 39 39 40 41 41 41 41 41 40 41 41 40 40 39 39 39 38 38 38 38 38 38 39 39 39 39 39 39 39 39 39 39 39 40 40 40 40 41 41 41 41 41 41 41 41 42 43 43 44 45 46
35 34 35 35 35 35 36 36 37 38 39 39 40 41 41 42 42 42 41 41 41 41 41 40 40 40 40 39 39 39 39 39 39 39 39 39 39 39 39 39 39 39 39 39 40 40 41 41 41 41 41 41 41 41 41 42 42 43 44 45 46 46
34 35 36 36 35 36 36 38 38 39 39 40 40 41 41 41 42 42 42 42 42 41 41 41 41 40 40 40 40 40 39 40 39 39 39 39 39 39 39 39 39 39 39 40 40 40 40 41 41 41 41 41 41 42 42 43 43 44 45 45 46 46
36 37 37 36 36 36 37 38 39 39 39 40 41 41 41 42 41 42 42 42 42 42 42 42 42 41 41 41 40 40 40 40 40 40 40 40 40 40 40 40 39 39 39 40 40 40 40 41 41 41 41 41 42 42 43 43 44 44 45 45 46 47
38 38 38 37 37 37 37 38 38 39 39 40 40 40 41 41 41 41 42 42 42 43 43 43 43 42 42 42 41 41 41 41 41 41 41 41 41 40 40 40 39 40 40 40 40 40 40 41 41 41 41 42 42 43 43 43 44 44 45 46 47 47
40 39 38 38 38 38 38 38 38 38 39 39 39 39 39 40 40 41 42 42 43 43 43 43 43 43 42 42 42 41 41 41 41 41 41 41 41 40 40 40 40 40 40 39 40 40 40 40 41 41 42 42 42 42 43 43 44 44 45 46 47 47
40 40 39 39 38 38 38 37 38 38 38 38 39 39 39 39 40 41 42 42 43 43 43 43 43 42 42 42 41 41 41 41 41 40 40 40 40 40 40 40 39 39 39 39 40 40 40 40 41 41 42 42 42 42 42 43 44 45 46 46 47 48
40 40 40 39 38 38 37 37 38 38 38 38 39 39 40 40 40 40 41 42 42 42 42 42 41 41 41 41 41 40 40 40 39 39 39 40 40 40 39 39 39 39 39 39 39 40 40 41 41 41 41 41 41 42 42 43 44 45 46 47 48 48
41 40 40 39 38 38 38 38 38 38 38 39 39 39 39 39 39 40 40 41 41 41 41 41 41 41 40 40 40 39 39 38 38 38 38 38 39 39 39 39 39 39 39 39 40 40 41 41 41 41 41 41 42 42 43 43 44 45 46 47 48 49
40 40 39 39 39 39 39 39 39 39 39 39 39 39 38 38 39 39 40 40 40 40 40 40 40 40 39 39 38 38 37 37 37 37 37 37 38 38 38 38 38 38 39 39 40 40 40 40 41 41 41 41 42 42 43 43 44 45 46 47 48 49
39 39 39 40 40 40 40 39 39 39 39 39 39 38 38 38 38 39 40 40 39 39 39 39 38 38 38 37 37 37 37 37 37 37 37 38 38 38 39 38 38 39 39 40 40 40 40 41 41 41 41 41 42 42 43 44 44 45 46 47 48 49
38 39 40 40 40 40 39 39 39 39 39 39 38 37 37 37 38 39 39 39 38 38 38 37 37 36 36 36 36 37 37 37 38 38 38 38 38 39 39 39 39 39 39 40 40 41 41 41 40 40 40 41 42 42 43 43 44 45 46 48 49 49
38 38 39 39 39 39 39 39 39 39 38 38 37 37 37 37 38 38 38 38 38 38 37 37 36 36 36 36 37 37 37 38 38 38 38 38 39 39 39 39 40 40 40 40 41 41 41 40 40 40 40 41 42 42 42 43 44 45 46 48 48 49
38 38 39 39 39 38 38 38 38 37 37 37 37 37 37 38 38 38 38 38 38 37 37 36 36 36 36 36 36 37 37 37 37 38 38 39 39 40 40 40 40 40 40 40 40 40 40 40 39 40 40 41 41 42 42 42 44 45 46 47 48 49
40 40 40 39 38 37 37 37 37 37 38 38 38 39 39 38 38 38 37 37 37 37 36 36 35 35 35 35 36 36 36 37 37 38 38 39 40 40 40 41 40 40 39 39 40 40 40 39 39 40 40 41 41 41 42 42 44 45 46 47 47 48
42 41 40 38 37 38 38 38 38 39 39 40 40 40 39 38 38 38 37 37 37 36 36 35 34 34 34 34 34 35 36 37 37 38 39 39 40 40 41 41 40 39 38 39 39 40 39 39 39 39 39 40 40 40 41 42 43 44 45 46 47 48
41 40 40 39 39 40 40 40 40 40 40 40 40 40 39 38 38 38 38 38 37 37 36 35 34 33 33 33 34 34 35 35 36 37 38 38 39 39 40 40 39 38 37 38 38 39 38 38 38 38 38 39 39 40 40 42 43 44 45 46 47 48
40 40 40 41 41 41 40 40 40 39 40 40 39 39 38 38 38 39 39 38 37 36 36 35 34 33 32 33 33 33 33 34 35 36 37 37 37 38 39 39 38 38 37 37 37 37 37 37 37 37 38 38 39 39 40 41 42 43 44 45 46 48
40 40 40 41 41 40 39 39 39 39 40 39 39 38 39 39 39 38 38 37 36 35 35 35 34 33 33 33 33 33 33 34 35 36 37 37 37 37 38 38 38 37 37 37 37 36 36 36 36 37 38 38 38 39 40 41 42 43 44 45 46 48
39 39 40 40 40 39 39 38 38 39 39 38 39 39 39 38 38 37 36 35 35 35 35 34 34 34 34 34 34 34 34 35 36 36 37 38 37 37 37 37 37 37 37 37 36 35 35 35 36 36 37 38 38 38 39 40 41 43 44 45 46 47
39 39 39 39 38 38 38 37 37 38 38 38 40 40 38 38 37 37 36 35 35 35 35 35 35 34 34 34 35 35 34 35 36 37 38 39 38 37 36 36 36 37 36 36 35 35 35 35 35 36 36 36 37 37 38 39 41 42 43 44 46 47
39 39 38 38 37 37 37 37 37 37 37 38 39 38 37 37 37 37 36 35 35 35 35 35 35 35 34 35 36 35 35 35 37 37 38 38 37 36 35 35 36 36 36 35 34 34 34 34 35 35 35 35 36 37 38 39 41 42 43 44 45 47
38 38 37 37 37 37 37 37 38 38 38 39 38 37 36 35 35 34 34 34 34 35 35 36 36 36 35 35 35 35 36 37 37 37 37 36 35 34 34 34 35 35 35 34 34 34 34 34 34 35 34 34 35 36 37 39 40 41 42 43 45 46
37 37 37 38 38 39 39 39 39 40 40 38 37 36 35 34 34 34 34 34 35 35 35 36 37 37 37 36 36 36 37 37 37 36 35 34 33 33 33 34 34 34 33 33 33 33 33 34 34 33 33 33 34 35 36 38 39 40 42 43 44 45
39 39 39 40 41 41 41 42 42 42 40 38 37 37 36 35 35 36 36 36 36 36 36 37 38 38 38 37 37 37 37 38 37 35 34 34 33 33 34 34 34 33 33 32 31 31 32 33 32 32 31 32 33 34 35 37 38 40 41 43 44 45
44 44 44 44 44 44 43 43 44 43 41 40 40 39 38 38 38 38 38 38 38 38 38 38 38 38 38 38 38 37 37 38 38 36 35 35 34 34 34 34 34 33 32 31 30 31 31 31 31 31 30 31 32 33 35 36 37 39 41 42 43 45
47 47 47 47 47 46 45 45 44 44 43 43 42 41 40 40 41 41 40 40 40 39 40 39 39 39 39 39 38 38 37 38 38 37 36 35 35 35 35 34 33 32 31 31 30 30 31 30 30 30 30 30 32 33 34 35 37 38 40 41 42 44
49 49 50 50 49 48 48 47 46 46 45 45 45 44 43 43 43 43 42 42 41 42 42 42 42 41 41 40 39 39 39 39 39 38 36 35 35 35 34 33 33 32 31 31 30 30 30 29 29 28 29 30 31 32 33 35 36 38 39 41 42 43
51 51 52 51 50 49 49 49 48 48 48 48 48 48 47 47 46 45 45 45 45 45 45 45 44 44 43 42 41 40 39 39 39 38 36 35 35 35 34 33 32 32 31 31 30 29 29 28 28 28 29 30 31 32 33 34 36 37 39 40 42 43
54 54 54 54 54 53 52 51 50 51 51 52 52 52 52 51 50 50 50 50 50 50 49 48 48 47 45 44 43 41 40 39 38 37 35 34 34 34 33 32 32 31 31 30 29 28 28 27 27 27 28 29 30 31 33 34 35 37 38 40 41 42
58 58 58 58 58 58 57 56 56 56 57 57 57 56 56 57 56 56 55 54 53 52 51 50 50 48 47 45 43 42 41 40 38 36 34 34 34 33 32 32 31 31 31 29 28 27 27 27 27 27 28 28 30 31 32 33 34 36 37 39 41 42
62 62 62 61 60 60 60 60 61 61 62 62 62 62 62 62 61 60 58 56 54 53 52 52 51 49 47 45 43 42 41 40 38 36 34 34 34 33 32 31 31 30 30 28 27 26 26 26 26 26 27 28 29 30 31 32 34 35 37 39 40 41
66 66 65 64 63 62 62 63 63 64 64 64 64 64 64 63 63 61 59 57 56 55 54 53 51 49 47 45 43 42 41 39 38 36 35 34 34 33 32 31 30 29 28 27 26 25 26 25 25 25 26 27 28 29 30 32 33 34 36 38 40 41
69 68 67 66 65 65 65 65 65 64 64 64 64 64 64 63 62 61 60 59 58 56 55 53 51 49 47 45 44 42 41 39 37 35 35 35 34 32 31 30 29 28 27 26 25 25 25 25 25 25 25 26 27 29 30 31 32 34 36 38 39 41
69 69 68 67 66 66 66 66 65 64 63 64 63 63 63 63 62 61 60 59 58 56 54 52 51 49 46 44 43 42 39 38 36 35 35 34 33 32 31 29 29 28 26 25 25 25 25 24 24 24 25 26 27 28 29 30 32 34 35 37 39 40
Wind_Direction
274 274 270 267 267 267 267 267 267 267 267 267 268 268 269 271 273 274 275 274 274 276 276 276 275 275 274 273 271 270 269 269 270 269 270 271 272 273 273 274 275 276 276 277 278 279 279 280 281 283 284 286 287 287 288 289 290 291 292 292 294 295
275 274 271 269 269 268 268 267 267 267 268 269 269 269 270 271 271 272 273 274 274 275 276 275 274 274 274 273 272 270 269 269 269 269 270 270 272 273 273 274 275 275 276 277 277 278 279 281 282 283 284 286 286 287 288 289 290 291 292 293 294 296
276 274 272 272 271 270 268 267 268 268 269 269 269 269 270 270 270 270 272 273 273 274 275 275 273 273 274 273 272 271 270 270 269 270 270 271 272 273 273 274 275 275 276 277 277 278 279 281 282 283 284 286 287 288 288 289 290 291 293 294 295 296
276 273 273 273 272 270 268 268 268 268 268 268 269 270 270 269 269 269 271 272 273 273 274 274 273 273 273 273 272 271 271 270 270 270 270 271 272 273 273 274 275 275 276 277 277 277 279 281 283 284 285 286 287 288 288 289 290 291 293 294 295 296
275 273 273 274 273 271 269 269 268 268 269 269 270 270 270 270 269 269 270 271 272 272 273 273 273 273 273 272 272 271 271 270 270 270 271 271 272 273 274 274 275 276 276 276 277 278 280 282 283 284 285 286 287 287 288 289 290 292 293 294 295 296
273 274 275 275 274 273 272 271 270 269 269 270 271 271 270 270 269 268 269 270 271 272 272 272 272 272 272 272 272 271 270 270 270 270 271 271 272 273 274 274 275 276 276 276 277 279 281 282 283 284 285 286 287 287 288 289 290 292 293 294 295 297
272 274 275 274 274 274 273 272 271 270 270 271 273 273 271 270 269 268 268 269 270 271 271 271 271 271 271 271 271 271 270 270 270 270 271 271 272 273 273 274 274 275 276 276 278 279 281 282 283 284 285 286 287 287 288 289 291 292 293 294 296 297
273 273 273 273 273 274 274 273 271 270 270 272 274 274 271 269 269 269 269 269 270 270 270 270 270 270 270 270 271 270 270 270 269 269 270 270 271 272 272 273 274 275 275 276 278 279 281 282 283 284 285 286 286 287 289 290 291 292 294 295 297 298
274 273 272 273 274 274 275 273 271 271 271 272 274 274 272 270 269 269 269 270 270 270 270 269 269 269 270 270 270 270 269 269 269 269 270 270 271 271 272 273 274 274 275 276 277 279 280 282 283 284 284 285 286 288 289 291 292 293 295 296 297 298
274 273 272 273 274 274 275 274 273 272 272 273 273 273 273 271 270 269 269 269 270 270 270 269 269 269 269 269 269 269 269 269 269 269 270 270 271 272 272 273 273 274 275 276 277 279 280 281 282 283 284 285 286 288 290 292 293 294 295 296 297 298
273 272 272 272 273 273 274 275 274 272 272 273 273 273 273 272 271 270 270 270 271 271 270 270 269 269 268 268 268 269 269 270 270 270 270 271 272 272 272 272 273 274 275 276 278 279 280 281 281 282 283 285 287 290 291 293 294 295 296 296 297 298
272 272 271 271 272 273 275 274 273 272 271 272 272 273 273 272 272 272 271 272 272 272 271 270 269 269 268 269 269 269 269 269 269 270 271 271 272 272 271 272 273 274 275 276 277 278 279 280 281 282 283 285 288 290 292 292 294 295 295 297 298 299
273 273 272 272 273 274 274 273 271 270 270 270 272 273 273 273 273 272 272 273 273 272 272 271 270 269 269 269 269 269 269 268 269 269 270 271 272 272 271 272 272 273 274 275 276 277 278 279 281 282 283 285 288 289 291 292 294 295 296 297 298 300
275 274 274 274 275 275 273 271 269 268 269 270 272 274 274 273 273 273 273 274 273 272 271 270 270 269 269 269 269 268 268 267 268 269 270 271 271 271 271 271 271 272 274 275 276 277 279 280 281 282 284 286 287 289 291 293 294 295 296 298 299 301
276 274 274 275 275 274 270 267 267 267 269 271 273 274 273 273 274 274 274 274 273 272 271 270 269 269 269 269 268 268 267 267 268 268 269 270 270 270 270 270 271 272 274 275 276 278 279 281 281 282 284 286 287 289 291 293 294 296 297 299 300 301
275 274 274 274 273 271 268 266 267 268 270 271 272 272 273 273 274 274 274 274 273 272 271 269 268 268 269 269 269 268 268 268 268 268 268 269 269 269 270 271 272 274 275 276 277 279 280 281 281 282 284 286 288 289 292 293 295 296 298 299 300 302
274 274 274 273 272 271 269 268 268 269 270 270 270 272 273 274 275 275 275 274 274 273 271 269 269 269 270 270 269 268 267 267 267 267 268 268 269 270 271 272 273 275 276 277 278 279 280 280 281 282 284 286 288 290 292 294 295 297 298 299 301 303
274 274 275 274 272 271 269 268 268 268 269 270 271 273 274 275 275 275 274 274 274 273 271 269 268 268 269 268 268 266 266 266 266 267 268 269 270 271 273 273 275 276 277 278 279 279 279 280 281 282 284 286 288 290 292 293 295 297 298 300 302 304
274 275 275 273 271 270 270 269 269 269 269 271 272 274 274 273 274 273 273 274 273 272 271 269 267 266 266 266 266 265 265 266 267 268 268 269 270 272 273 274 276 277 278 278 279 279 279 279 281 282 285 287 289 291 293 294 295 297 299 301 303 305
273 273 273 272 271 271 270 269 268 269 269 271 272 272 271 272 272 272 272 272 272 271 270 268 266 265 265 266 266 266 266 268 269 269 269 270 270 272 273 275 276 277 278 278 279 278 279 280 281 283 285 288 289 292 294 295 296 298 299 302 304 306
273 273 274 273 272 272 270 267 267 267 268 269 269 269 269 269 270 270 270 271 271 270 268 266 265 265 266 266 267 268 269 270 271 271 271 271 272 273 274 276 276 276 277 279 279 279 279 280 282 284 285 287 290 292 294 295 297 298 301 303 305 307
273 273 274 274 272 271 269 267 265 266 266 266 265 266 267 269 270 270 270 270 268 267 267 267 266 266 266 267 268 270 271 273 273 273 273 273 273 274 275 275 275 276 277 278 279 279 280 281 283 284 285 287 290 292 293 295 297 299 302 304 306 307
272 272 273 273 272 270 268 266 265 264 264 263 264 266 267 269 270 270 269 267 265 264 266 267 266 267 268 268 269 271 273 275 276 275 274 274 273 274 274 274 275 276 276 277 278 279 281 282 283 284 286 288 290 292 294 296 298 300 302 304 306 308
272 272 273 272 271 269 267 264 263 263 263 264 265 266 267 268 269 269 267 265 263 263 265 266 266 267 269 270 270 271 274 277 278 278 276 274 272 272 273 273 274 275 275 276 277 279 281 283 284 285 286 289 291 293 295 297 299 301 303 305 307 309
273 273 272 272 270 268 266 264 263 264 266 267 267 265 265 267 267 267 265 263 263 263 264 265 266 267 270 272 272 272 274 277 280 280 277 273 270 270 271 272 274 274 275 275 277 279 281 283 284 285 287 289 291 294 297 299 301 302 304 306 308 310
273 272 271 270 269 268 266 264 264 265 267 268 267 265 264 264 264 264 264 263 263 264 266 266 266 268 271 273 273 273 275 277 279 281 278 272 269 269 270 271 273 274 274 275 277 279 281 283 284 285 287 289 292 295 298 300 301 303 305 307 309 311
272 271 270 269 269 268 267 266 265 267 267 267 265 264 263 262 262 264 264 264 265 266 267 267 267 268 270 272 273 274 275 276 278 279 276 272 269 268 268 270 271 272 274 275 277 278 280 282 283 284 286 289 293 296 299 300 302 305 307 308 310 312
272 271 270 270 270 269 268 267 266 267 267 265 264 264 263 262 263 265 265 265 266 266 266 267 267 268 269 272 275 276 275 275 275 275 274 272 270 269 269 269 270 271 274 276 277 278 279 281 282 284 287 290 294 297 299 302 304 306 308 310 311 312
272 271 271 271 270 269 269 268 267 267 265 263 263 264 263 263 265 266 265 265 266 267 266 266 267 267 268 271 274 277 276 275 274 273 272 271 270 269 269 269 269 271 273 275 275 277 279 280 282 285 288 292 295 297 300 302 305 307 309 311 312 314
272 271 271 272 271 269 268 267 266 265 264 262 262 263 264 265 266 266 266 266 267 268 267 266 266 267 268 271 273 275 276 275 273 272 271 269 268 267 267 267 268 270 272 273 275 277 279 280 282 285 288 292 295 297 300 303 305 308 310 312 314 315
272 271 271 271 271 268 267 266 265 264 263 262 263 263 264 265 266 266 266 267 268 269 268 267 267 268 268 270 272 274 275 274 272 270 269 268 267 266 265 265 266 268 271 272 274 276 278 280 282 285 288 292 295 298 301 304 307 309 311 314 316 317
272 271 271 270 270 269 268 267 265 263 263 263 264 264 265 265 266 266 266 267 269 269 268 268 268 268 268 269 271 273 274 274 272 269 267 266 265 264 263 262 264 266 269 271 273 275 278 279 281 284 288 292 296 299 302 305 308 311 313 315 317 318
273 272 271 270 269 268 268 266 264 263 263 264 264 265 265 266 266 266 266 267 268 268 267 266 266 267 267 268 269 270 271 271 270 268 265 263 262 261 260 260 262 264 267 269 272 275 277 278 280 283 288 293 297 300 304 307 310 313 315 317 318 319
273 272 272 271 269 268 267 265 264 264 264 264 264 264 265 266 267 267 267 266 266 265 265 264 264 264 264 265 267 267 267 266 266 264 262 261 259 258 258 259 261 263 265 267 271 275 276 276 278 283 289 293 298 302 305 308 311 313 316 317 319 320
274 273 273 272 270 268 267 266 265 265 265 264 264 265 266 266 267 267 266 265 263 263 263 262 261 261 261 262 263 264 263 262 261 260 258 258 257 255 255 256 259 261 264 266 269 272 273 274 278 284 289 294 298 303 306 309 311 314 316 318 320 321
275 274 273 272 271 269 268 267 266 265 265 265 265 265 265 266 265 265 264 263 261 261 261 259 258 258 258 259 260 260 259 258 257 256 254 253 252 251 252 254 257 259 261 264 267 269 270 273 278 284 290 295 299 304 307 310 312 314 317 319 321 322
274 273 271 270 269 269 268 268 268 267 265 265 265 264 264 264 263 263 263 261 260 260 259 256 255 255 256 257 257 256 254 253 253 253 251 250 249 248 250 252 255 258 260 262 264 267 269 273 279 284 290 295 300 304 308 310 313 315 318 320 322 323
274 272 270 270 269 269 269 269 269 268 266 265 264 263 263 263 263 262 262 260 259 258 256 253 252 252 253 253 253 252 250 249 248 249 248 247 247 248 249 251 253 256 258 260 263 266 269 273 279 284 290 295 300 305 308 311 313 316 318 320 322 323